Regional Weather Roundup
Issued by NWS

Home | Current Version | Previous Version | Text Only | Print | Product List | Glossary Off
Versions: 1 2 3 4 5 6 7 8 9 10 11 12 13 14 15 16 17 18 19 20 21 22 23 24 25 26 27 28 29 30 31 32 33 34 35 36 37 38 39 40 41 42 43 44 45 46 47 48 49 50

951
ASUS43 KDTX 201010
RWRMI
MICHIGAN HOURLY REGIONAL WEATHER ROUNDUP
NATIONAL WEATHER SERVICE DETROIT/PONTIAC MI
ISSUED BY NATIONAL WEATHER SERVICE GRAND RAPIDS MI
500 AM EST MON FEB 20 2017

NOTE: "FAIR" INDICATES FEW OR NO CLOUDS BELOW 12,000 FEET WITH NO
SIGNIFICANT WEATHER AND/OR OBSTRUCTION TO VISIBILITY.

MIZ047>049-052>055-059>063-066>070-074>076-081>083-201100-
SOUTHEAST LOWER MICHIGAN

CITY           SKY/WX    TMP DP  RH WIND       PRES   REMARKS
ADRIAN         CLOUDY    36  32  85 NE3       30.21R
ALMA           PTCLDY    32  29  88 NE3       30.22S
ANN ARBOR      CLOUDY    34  29  82 NE5       30.21R WCI  30
BAD AXE        CLOUDY    28  26  93 CALM      30.26R
DETROIT CITY   CLOUDY    34  30  85 NE3       30.22S
DETROIT        CLOUDY    37  30  75 NE3       30.22S
FLINT          CLOUDY    30  27  88 E5        30.22F WCI  25
GROSSE ILE     PTCLDY    36  32  85 NE6       30.20F WCI  31
HILLSDALE      CLOUDY    37  32  81 E5        30.18R WCI  34
HOWELL         PTCLDY    33  28  82 CALM      30.20S

CITY           SKY/WX    TMP DP  RH WIND       PRES   REMARKS
JACKSON        CLOUDY    38  30  73 SE3       30.20R
LANSING        CLOUDY    33  27  78 E5        30.22R WCI  29
MASON          PTCLDY    38  31  77 E3        30.21R
MONROE         CLOUDY    36  32  85 NE5       30.20S WCI  32
MT. CLEMENS    PTCLDY    31  30  97 CALM      30.21S
PONTIAC        PTCLDY    30  25  81 CALM      30.20F
PORT HOPE        N/A     32  30  92 NW3       30.24R
PORT HURON     CLOUDY    27  27 100 CALM      30.24R
TRI CITIES     PTCLDY    31  29  92 NE5       30.23S WCI  26
YPSILANTI      PTCLDY    33  29  85 NE6       30.21F WCI  28
$$
MIZ043>046-050>051-056>058-064>065-071>073-077>080-201100-
SOUTHWEST LOWER MICHIGAN

CITY           SKY/WX    TMP DP  RH WIND       PRES   REMARKS
BATTLE CREEK   CLOUDY    36  29  75 NE3       30.19R
BENTON HARBOR  MOCLDY    38  27  64 CALM      30.16R
BIG RAPIDS     CLOUDY    32  29  89 CALM      30.20R
COLDWATER      CLOUDY    32  30  92 CALM      30.18R
HOLLAND        CLOUDY    34  29  82 E6        30.17S WCI  29
GRAND RAPIDS   CLOUDY    37  28  70 E7        30.19R WCI  32
KALAMAZOO      CLOUDY    35  27  72 CALM      30.18R
MARSHALL       CLOUDY    34  30  86 CALM      30.18R
MOUNT PLEASANT PTCLDY    29  28  96 CALM      30.22S
MUSKEGON       PTCLDY    36  29  75 E3        30.18R
STURGIS        CLOUDY    39  29  65 E5        30.17R
$$
MIZ016>042-201100-
NORTHERN LOWER MICHIGAN

CITY           SKY/WX    TMP DP  RH WIND       PRES   REMARKS
ALPENA         CLOUDY    29  29 100 NE5       30.28R WCI  24
BEAVER ISLAND  CLOUDY    32  30  92 E8        30.22S WCI  25
BELLAIRE       PTCLDY    28  27  96 CALM      30.22S
CADILLAC       CLOUDY    28  25  87 CALM      30.19R
CHARLEVOIX     PTCLDY    33  29  84 SE6       30.24S WCI  28
GAYLORD        PTCLDY    32  25  75 CALM      30.21R
HOUGHTON LAKE  CLOUDY    26  24  92 CALM      30.22S
MANISTEE       PTCLDY    32  28  85 E7        30.18R WCI  26
OSCODA         CLOUDY    28  26  89 W6        30.25S WCI  22
PELLSTON       CLOUDY    25  22  88 CALM      30.25R
TRAVERSE CITY  CLOUDY    28  26  92 CALM      30.20R
LUDINGTON      CLOUDY    37  31  79 E7        30.17R WCI  32
$$
MIZ007>008-015-201100-
EASTERN UPPER MICHIGAN

CITY           SKY/WX    TMP DP  RH WIND       PRES   REMARKS
KINROSS        CLOUDY    30  27  88 E9        30.26R WCI  22
MACKINAC ISLAN CLOUDY    34  31  90 E13G21    30.25R WCI  25
NEWBERRY       PTCLDY    28  27  97 E7        30.23R WCI  21
S. S. MARIE    CLOUDY    32  26  78 E6        30.27R WCI  26
$$
MIZ004>006-011>014-085-201100-
CENTRAL UPPER MICHIGAN

CITY           SKY/WX    TMP DP  RH WIND       PRES   REMARKS
MANISTIQUE     CLOUDY    32  31  95 E6        30.21R WCI  27
ESCANABA       PTCLDY    34  30  85 E6        30.20R WCI  29
MENOMINEE      PTCLDY    34  31  88 E6        30.18R WCI  29
SAWYER-GWINN   PTCLDY    32  28  83 S7        30.17R WCI  26
$$
MIZ001>003-009>011-084-201100-
WESTERN UPPER MICHIGAN

CITY           SKY/WX    TMP DP  RH WIND       PRES   REMARKS
IRON MOUNTAIN  CLOUDY    31  26  82 S5        30.14S WCI  26
HOUGHTON       CLOUDY    34  29  82 E13       30.09F WCI  25
COPPER HARBOR    N/A     36  31  82 S12G20    30.12S WCI  28
IRONWOOD       PTCLDY    44  31  60 SE13      29.99F
$$

ABBREVIATIONS USED IN REMARKS
   TC - TEMPERATURE IN CELSIUS
  WCI - WIND CHILL INDEX
   HX - HEAT INDEX
  VSB - VISIBILITY





USA.gov is the U.S. government's official web portal to all federal, state and local government web resources and services.